Zurück zum Katalog

COSMOS 2251 DEB

AktivLEO
NORAD 34062·DEBRIS·🇷🇺 Russia

Gestartet Jun 16, 1993 von Plesetsk Cosmodrome

Loading…

Nächste Überflüge (nächste 24 Stunden)

TLE

AktuellSource: Space-Track

Epoche: Sep 14, 2026, 13:24 UTC

1 34062U 93036JZ  26257.55841500  .00008221  00000-0  90236-3 0  9992
2 34062  74.0257 311.8157 0069339 318.9623 110.2223 14.86055831926841

Verfolge COSMOS 2251 DEB in Echtzeit mit AllMySat

Download on the App Store